Weather History for Kingston, Jamaica

Change the Weather History Date:

Saturday, January 1, 2011

  Actual Average Record
Temperature  
Mean Temperature 76 °F -  
Max Temperature 84 °F 84 °F 89 °F (1999)
Min Temperature 69 °F 74 °F 71 °F (2009)
Cooling Degree Days 12    
Growing Degree Days 26 (Base 50)    
Moisture  
Dew Point 61 °F    
Average Humidity 58    
Maximum Humidity 73    
Minimum Humidity 36    
Precipitation  
Precipitation 0.00 in - - ()
Sea Level Pressure  
Sea Level Pressure 29.97 in    
Wind  
Wind Speed 3 mph ()    
Max Wind Speed 10 mph    
Max Gust Speed -    
Visibility 7.6 miles    
Events      
Averages and records for this station are not official NWS values.
T = Trace of Precipitation, MM = Missing Value Source: Averaged Metar Reports

Daily Weather History Graph

Daily Weather History Graph

Search for Another Location

Airport:

Trip Planner

Search our weather history database for the weather conditions in past years. The results will help you decide how hot, cold, wet, or windy it might be!

Date:

Astronomy

Jan. 01, 2011 Rise Set
Actual Time 6:38 AM EST 5:43 PM EST
Civil Twilight 6:14 AM EST 6:06 PM EST
Nautical Twilight 5:47 AM EST 6:33 PM EST
Astronomical Twilight 5:20 AM EST 7:00 PM EST
Moon 4:04 AM EST (1/1) 3:23 PM EST (1/1)
Length of Visible Light 11h 52m
Length of Day
11h 04m
Waning Crescent, 8% of the Moon is Illuminated
Jan 1
Waning Crescent
Jan 4
New
Jan 12
First Quarter
Jan 19
Full
Jan 26
Last Quarter

Hourly Weather History & Observations

Time (EST) Temp. Heat Index Dew Point Humidity Pressure Visibility Wind Dir Wind Speed Gust Speed Precip Events Conditions
12:00 AM 73.4 °F - 57.2 °F 57% 29.98 in 6.2 mi WSW 2.3 mph - N/A   Scattered Clouds
1:00 AM 72 °F - 60 °F 58% 29.99 in 12 mi Calm Calm - -   Haze
1:00 AM 73.4 °F - 60.8 °F 65% 29.98 in 6.2 mi Calm Calm - N/A   Scattered Clouds
2:00 AM 71.6 °F - 62.6 °F 73% 29.95 in 6.2 mi SSE 2.3 mph - N/A   Scattered Clouds
3:00 AM 73.4 °F - 62.6 °F 69% 29.95 in 6.2 mi North 3.5 mph - N/A   Scattered Clouds
4:00 AM 73.4 °F - 62.6 °F 69% 29.95 in 6.2 mi North 2.3 mph - N/A   Scattered Clouds
5:00 AM 71.6 °F - 62.6 °F 73% 29.95 in 6.2 mi North 3.5 mph - N/A   Scattered Clouds
6:00 AM 71.6 °F - 62.6 °F 73% 29.95 in 6.2 mi NNE 2.3 mph - N/A   Scattered Clouds
7:00 AM 80 °F - 58 °F 36% 29.97 in 16 mi Calm Calm - -   Haze
7:00 AM 71.6 °F - 62.6 °F 73% 29.98 in 6.2 mi Calm Calm - N/A   Mostly Cloudy
8:00 AM 73.4 °F - 62.6 °F 69% 30.01 in 6.2 mi North 3.5 mph - N/A   Mostly Cloudy
9:00 AM 75.2 °F - 60.8 °F 61% 30.01 in 6.2 mi NNW 3.5 mph - N/A   Mostly Cloudy
10:00 AM 77 °F - 61 °F 49% 30.03 in 14 mi WNW 3.5 mph - -   Haze
10:00 AM 77.0 °F - 60.8 °F 57% 30.01 in 6.2 mi WNW 3.5 mph - N/A   Mostly Cloudy
11:00 AM 80.6 °F 81.1 °F 59.0 °F 48% 30.01 in 6.2 mi West 3.5 mph - N/A   Mostly Cloudy
12:00 PM 78.8 °F - 59.0 °F 51% 29.98 in 6.2 mi SSW 6.9 mph - N/A   Mostly Cloudy
1:00 PM 78.8 °F - 57.2 °F 47% 29.95 in 6.2 mi SSW 8.1 mph - N/A   Mostly Cloudy
2:00 PM 78.8 °F - 60.8 °F 54% 29.95 in 6.2 mi SSW 5.8 mph - N/A   Mostly Cloudy
3:00 PM 80.6 °F 81.5 °F 60.8 °F 51% 29.92 in 6.2 mi SSW 3.5 mph - N/A   Mostly Cloudy
4:00 PM 80 °F - 62 °F 44% 29.94 in 14 mi South 5.8 mph - -   Haze
4:00 PM 80.6 °F 81.8 °F 62.6 °F 54% 29.92 in 6.2 mi South 5.8 mph - N/A   Mostly Cloudy
5:00 PM 80.6 °F 81.1 °F 59.0 °F 48% 29.95 in 6.2 mi SSE 4.6 mph - N/A   Mostly Cloudy
6:00 PM 77.0 °F - 62.6 °F 61% 29.95 in 6.2 mi WNW 9.2 mph - N/A   Mostly Cloudy
7:00 PM 75 °F - 60 °F 50% 29.97 in 12 mi NNW 10.4 mph - -   Haze
7:00 PM 75.2 °F - 60.8 °F 61% 29.95 in 6.2 mi NNW 10.4 mph - N/A   Mostly Cloudy
8:00 PM 75.2 °F - 59.0 °F 57% 29.98 in 6.2 mi NNW 9.2 mph - N/A   Mostly Cloudy
9:00 PM 75.2 °F - 60.8 °F 61% 30.01 in 6.2 mi North 4.6 mph - N/A   Mostly Cloudy
10:00 PM 74 °F - 59 °F 51% 30.02 in 12 mi West 5.8 mph - -   Haze
10:00 PM 73.4 °F - 59.0 °F 61% 30.01 in 6.2 mi West 5.8 mph - N/A   Mostly Cloudy
11:00 PM 73.4 °F - 57.2 °F 57% 30.01 in 6.2 mi WNW 6.9 mph - N/A   Mostly Cloudy